Regional Weather Roundup
Issued by NWS Charleston, SC

Current Version | Previous Version | Graphics & Text | Print | Product List | Glossary On
Versions: 1 2 3 4 5 6 7 8 9 10 11 12 13 14 15 16 17 18 19 20 21 22 23 24 25 26 27 28 29 30 31 32 33 34 35 36 37 38 39 40 41 42 43 44 45 46 47 48 49 50
000
ASUS42 KCHS 191712
RWRCHS

Regional Weather Roundup
National Weather Service Charleston SC
100 PM EDT THU APR 19 2018

NOTE: "fair" indicates few or no clouds below 12,000 feet with no
significant weather and/or obstructions to visibility.

Not all stations are quality controlled. Use data with caution,
especially dewpoint observations.

SCZ027-030-031-034>040-042>050-191800-
...Southeast South Carolina...

CITY           SKY/WX    TMP DP  RH WIND       PRES   REMARKS
N Charleston   FAIR      82  59  45 W15G29    29.92F
Waterfront Prk   N/A     77  62  59 SW9       29.77F
Mount Pleasant FAIR      81  63  54 SW18G24   29.92F
Johns Island   PTSUNNY   77  66  69 SW14      29.93F
Pinopolis        N/A    N/A N/A N/A W21       29.84F
Moncks Corner  FAIR      79  54  41 W14G22    29.91F
Summerville    FAIR      79  59  50 SW13G24   29.92F
Beaufort MCAS  FAIR      82  62  50 W23G31    29.95F
Beaufort Arpt  FAIR      81  61  50 W16G25    29.95F HAZE
Hilton Head Is NOT AVBL
Walterboro     FAIR      77  57  50 W20       29.95S
Allendale      PTSUNNY   77  59  53 W10G17    29.95F

...Southern Midlands and Pee Dee...

CITY           SKY/WX    TMP DP  RH WIND       PRES   REMARKS
Georgetown     FAIR      81  55  41 W22G30    29.89F
Kingstree      FAIR      79  54  41 SW14G23   29.88F
Orangeburg     FAIR      79  55  43 W20G32    29.91F
Barnwell       PTSUNNY   79  57  47 W12G21    29.94F
Aiken          FAIR      77  46  33 W24G33    29.98S
Manning        PTSUNNY   73  52  46 W18G31    29.90F
Columbia       FAIR      81  47  30 W21G36    29.90F
Sumter         MOSUNNY   80  49  33 W20G35    29.86S
Florence       FAIR      82  49  31 W23G32    29.84F
Myrtle Beach   FAIR      81  57  43 W23G31    29.87F
N Myrtle Beach FAIR      81  56  42 W12G32    29.84F

$$

GAZ063-065-086>088-099>101-113>116-118-119-134>141-150-191800-
...Southeast Georgia...

CITY           SKY/WX    TMP DP  RH WIND       PRES   REMARKS
Savannah Arpt  FAIR      81  61  50 W22G29    29.98F
Hunter AAF     FAIR      83  62  48 W21       29.95
Fort Stewart   PTSUNNY   81  61  50 W21       29.97
Statesboro     PTSUNNY   78  56  45 W17G26    29.99S
Sylvania       PTSUNNY   77  63  61 NW10G18   29.99F
Claxton        PTSUNNY   78  64  60 SW10G24   30.00S

...CSRA, Central and far Southeast Georgia...

CITY           SKY/WX    TMP DP  RH WIND       PRES   REMARKS
Thomson        FAIR      75  48  38 N17G26    30.03R
Augusta-Bush   FAIR      81  53  37 W23G29    29.95S
Augusta-Daniel FAIR      79  49  34 W10G24    29.96S
Swainsboro     PTSUNNY   77  61  57 W14       30.00F
Vidalia        PTSUNNY   77  63  61 W12G20    30.02F
Eastman        PTSUNNY   78  51  37 W8        30.05F
Hazlehurst     PTSUNNY   80  59  49 W9        30.02S
Alma           PTSUNNY   80  62  54 W12       30.02F
Waycross       FAIR      83  57  42 W16G26    30.02F
Jesup          FAIR      82  59  44 W15G26    30.01S
Baxley         PTSUNNY   77  61  57 W10G21    30.01F
Brunswick      FAIR      81  61  50 SW15G22   30.02F
Saint Simons   FAIR      81  63  54 SW17      30.02S

$$

SCZ027-028-034-036>038-045-046-048>050-GAZ119-141-191800-
...Lake and Supplemental Coastal Observations...

STATION/POSITION TIME  TEMP    WIND        PRES    WAVE   SWELL
                       AIR SEA DIR/SP/G            HT/PER HT/PER/DIR
                 (UTC) (F)     (DEG/KT/KT) (MB)    (FT/S) (FT/S/D)
Winyah Bay       1545   77     270/ 12     1013.0
Lake Murray      1620   72     270/ 13/ 25 1012.2
ACE Basin NERRS  1545   77     350/  7       N/A
Fort Pulaski     1636   78 65  270/ 12/ 22 1015.2F
Sapelo Island    1600   75     240/ 14     1016.0

$$

ANZ835-935-AMZ111-154-330-350-352-354-370-450-454-472-191800-
...C-MAN and Buoy Observations...

STATION/POSITION TIME  TEMP    WIND        PRES    WAVE   SWELL
                       AIR SEA DIR/SP/G            HT/PER HT/PER/DIR
                 (UTC) (F)     (DEG/KT/KT) (MB)    (FT/S) (FT/S/D)
Buoy 41004       1650   67 68  230/ 19/ 23 1014.2F   6/ 6   2/130/ 9
Buoy 41008       1650   66 65  190/ 14/ 16 1015.8F   3/ 5
Folly Beach CMAN 1600   67     210/ 15/ 17 1014.7F
Capers Nearshore 1608   65 63  230/ 17/ 21 1013.7F
Fripp Nearshore  1608   66 64  220/ 12/ 17 1014.6F


STATION/POSITION TIME  TEMP    WIND        PRES    WAVE   SWELL
                       AIR SEA DIR/SP/G            HT/PER HT/PER/DIR
                 (UTC) (F)     (DEG/KT/KT) (MB)    (FT/S) (FT/S/D)
5E St. Marys GA  1700      67                N/A     2/ 5
Frying Pan Buoy  1650   67 66  220/ 21/ 27 1012.2F   7/ 7   2/ 80/15
Buoy 41025       1650   69 69  230/ 27/ 33 1008.6F   9/ 8   3/200/ 9
Cape Lookout NC  1600          220/ 18/ 24 1009.7F
Buoy 41002       1650   73 72  230/ 17/ 23 1016.3F   7/ 7   2/350/15
Buoy 41010       1650   74 73  230/ 12/ 14 1019.7F   4/ 5   2/100/ 9
St Augustine FL  1700   77 67  250/ 16/ 20 1018.4F


$$



USA.gov is the U.S. government's official web portal to all federal, state and local government web resources and services.